Other Public Products
Issued by NWS Grand Forks, ND

Home | Current Version | Previous Version | Graphics & Text | Print | Product List | Glossary On
Versions: 1 2 3 4 5 6 7 8 9 10 11 12 13 14 15 16 17 18 19 20 21 22 23 24 25 26 27 28 29 30 31 32 33 34 35 36 37 38 39 40 41 42 43 44 45 46 47 48 49 50
000
FPUS83 KFGF 232210
OPUFGF
PRAIRIE TO PINES WEATHER ROUNDUP
NATIONAL WEATHER SERVICE EASTERN NORTH DAKOTA/GRAND FORKS ND
500 PM CDT TUE MAY 23 2017

 **SATELLITE DATA USED TO AUGMENT SKY COVER AT AUTOMATED STATIONS**
 *****  WEATHER ACROSS EASTERN NORTH DAKOTA  *****

CITY           SKY/WX    TMP DP  RH WIND       PRES   REMARKS
GRAND FORKS    PTSUNNY   62  43  49 NE13      29.97S
GRAND FORKS AF CLOUDY    61  41  48 NE16      29.98F
GRAND CITY NWS NOT AVBL
BUXTON         NOT AVBL
DEVILS LAKE    PTSUNNY   61  37  41 NE13G24   30.02S
FARGO          PTSUNNY   59  45  59 NE14      29.94F
WAHPETON ARPT  FAIR      57  45  62 N17G24    29.92F
$$

 *****  WEATHER ACROSS CENTRAL AND WESTERN NORTH DAKOTA  *****

CITY           SKY/WX    TMP DP  RH WIND       PRES   REMARKS
JAMESTOWN      CLOUDY    57  42  57 N13G24    29.99S
BISMARCK       PTSUNNY   65  34  31 N22       30.02F
MINOT          FAIR      69  32  25 NE13G20   30.01F
MINOT AFB      FAIR      68  31  26 CALM      30.01F
GARRISON         N/A     67  34  29 NE9       30.02F
WILLISTON      FAIR      72  29  20 VRB6      30.03F
DICKINSON      FAIR      63  31  30 VRB3      30.03F
HETTINGER      FAIR      65  32  29 N14G22    30.06F
$$

 *****  OTHER OBSERVATIONS NORTHEAST NORTH DAKOTA  *****

CITY           SKY/WX    TMP DP  RH WIND       PRES   REMARKS
WALHALLA       NOT AVBL
LANGDON        FAIR      64  39  39 NE14      30.01F
CAVALIER       FAIR      66  39  37 NE10G17   29.98F
GRAFTON        MOCLDY    63  41  45 NE13      30.00S
CANDO          NOT AVBL
FORT TOTTEN      N/A     61  40  46 E6        29.95S
ROLLA          FAIR      66  30  26 NE14      30.02F
RUGBY          NOT AVBL
 ***** THE ABOVE OBSERVATIONS ARE NON NWS ARE NOT QUALITY
        CONTROLLED AND MAY MIS-REPORT RAIN FOR SNOW...
$$

 *****  OTHER OBSERVATIONS SOUTHEAST NORTH DAKOTA *****

CITY           SKY/WX    TMP DP  RH WIND       PRES   REMARKS
COOPERSTOWN    CLOUDY    59  43  55 N17       29.99S
VALLEY CITY    CLOUDY    55  45  67 NE14G21   29.99S
OAKES          NOT AVBL
GWINNER        MOCLDY    57  45  62 MISG      29.95F
SHEYENNE NWR     N/A     57  44  62 NE14      29.95S
BUFFALO        NOT AVBL
WYNDMERE         N/A     57  46  67 N18         N/A
 ***** THE ABOVE OBSERVATIONS ARE NON NWS ARE NOT QUALITY
       CONTROLLED AND MAY MIS-REPORT RAIN FOR SNOW...
$$

  *****  WEATHER ACROSS NORTHERN MINNESOTA  *****

CITY           SKY/WX    TMP DP  RH WIND       PRES   REMARKS
FLAG ISLAND    PTSUNNY   61  36  39 N12       29.95F
WARROAD        FAIR      61  46  59 E10       29.98S
ROSEAU         FAIR      64  43  45 NE17G25   29.96F
HALLOCK        PTSUNNY   66  36  32 NE13      29.97F
THF RVR FALLS  CLOUDY    57  42  57 NE16G22   29.96F
HALSTAD          N/A     55  45  67 NE10        N/A
FOSSTON        FAIR      57  50  77 NE15      29.95F
BAUDETTE       CLOUDY    58  40  51 E13       29.96S
WASKISH        CLOUDY    54  45  71 NE10G17   29.95S
CROOKSTON      CLOUDY    57  43  58 NE12G23   29.97S
$$
  *****  WEATHER ACROSS CENTRAL AND WEST MINNESOTA  *****

CITY           SKY/WX    TMP DP  RH WIND       PRES   REMARKS
BEMIDJI        PTSUNNY   54  44  69 NE10G16   29.93F
PARK RAPIDS    CLOUDY    54  43  66 N14       29.91S
WADENA         PTSUNNY   55  46  71 N18       29.89S
DETROIT LAKES  CLOUDY    52  45  76 NE9G20    29.94S
MOORHEAD       CLOUDY    55  45  67 NE13      29.95F
FERGUS FALLS   PTSUNNY   55  46  71 N12G20    29.89S
ELBOW LAKE     CLOUDY    56  46  67 N16       29.89S
MORRIS MN      CLOUDY    57  46  67 NE13      29.87S
STAPLES        LGT RAIN  55  43  62 N12G20    29.88S
WHEATON        LGT RAIN  55  46  71 N15G25    29.92S
$$
  *****  WEATHER ELSEWHERE ACROSS MINNESOTA  *****

CITY           SKY/WX    TMP DP  RH WIND       PRES   REMARKS
DULUTH         PTSUNNY   54  46  74 E14       29.87R
INTRNTL FALLS  CLOUDY    56  42  59 E7        29.94S
ELY            CLOUDY    54  43  66 NE6       29.90S
CLOQUET        LGT RAIN  50  45  81 E8        29.87R
BRAINERD       LGT RAIN  57  43  59 N13       29.87S
HIBBING        CLOUDY    55  45  68 N13       29.88S
ALEXANDRIA     CLOUDY    57  42  57 NE12      29.88S
SAINT CLOUD    CLOUDY    58  48  69 NE10G18   29.84S
MINNEAPOLIS    PTSUNNY   60  44  55 NE13      29.79F
$$

  *****  WEATHER ACROSS SOUTH DAKOTA  *****

CITY           SKY/WX    TMP DP  RH WIND       PRES   REMARKS
SIOUX FALLS    CLOUDY    57  47  69 N17G28    29.84F
BROOKINGS      LGT RAIN  48  45  87 N14G22    29.88R
WATERTOWN      CLOUDY    52  46  80 N22       29.89F
HURON          CLOUDY    53  45  74 N15G24    29.94S
SISSETON         N/A     55  49  80 N23       29.91S
ABERDEEN       CLOUDY    56  41  57 N18G24    29.96F
MITCHELL       CLOUDY    54  44  69 N17       29.93S
PIERRE         LGT RAIN  54  39  57 N20       30.00F
MOBRIDGE       CLOUDY    62  37  39 N16G23    29.99F
RAPID CITY     FAIR      64  34  32 N22G29    30.05F
$$

  *****  SOME WEATHER IN NEARBY STATES *****

CITY           SKY/WX    TMP DP  RH WIND       PRES   REMARKS
GLASGOW MT     FAIR      70  29  21 S15       29.96F
GREAT FALLS MT FAIR      79  44  28 SW12      29.89F
CHEYENNE WY    PTSUNNY   54  30  40 N16G29    30.14F
SCOTTSBLUFF NE PTSUNNY   66  33  29 N18G35    30.06F
OMAHA NE       PTSUNNY   57  44  62 NW14G25   29.83F
DES MOINES IA  PTSUNNY   61  44  53 NW12      29.76S
DAVENPORT IA   FAIR      64  49  57 W3        29.71F
CHICAGO IL     LGT RAIN  60  56  86 CALM      29.72S FOG
EAU CLAIRE WI  CLOUDY    56  46  69 N8        29.76F
LA CROSSE WI   LGT RAIN  58  52  80 N8        29.72S
$$

  *****  SOME NATIONAL WEATHER *****

CITY           SKY/WX    TMP DP  RH WIND       PRES   REMARKS
LA GUARDIA NY  CLOUDY    70  43  37 CALM      29.83F
RALEIGH NC     LGT RAIN  69  67  93 E6        29.72R
ATLANTA GA     PTSUNNY   72  65  78 S5        29.70F
NEW ORLEANS LA PTSUNNY   83  68  60 W7        29.71F
OKLAHOMA CITY  PTSUNNY   68  44  42 N13       29.89F
ALBUQUERQUE NM PTSUNNY   77  31  18 W7        30.03F
SALT LAKE CITY PTSUNNY   80  40  23 N14       30.10F
LOS ANGELES CA FAIR      66  57  72 W12       29.94F
BOISE ID       FAIR      84  40  21 VRB6      30.01F
SEATTLE WA     FAIR      77  53  43 S12       29.97F
$$

*** WEATHER ACROSS MANITOBA...SASKATCHEWAN AND ONTARIO ***
                ***ONTARIO***

CITY           SKY/WX    TMP DP  RH WIND       PRES   REMARKS
GERALDTON      PTSUNNY   55  43  62 N8        29.91F
THUNDER BAY    CLOUDY    57  45  62 E10       29.88S
SIOUX LOOKOUT  PTSUNNY   61  39  44 VRB2      29.94F
TORONTO        PTSUNNY   66  50  55 E5        29.78S
BIG TROUT LK   SUNNY     55  27  33 SW8       30.01F
PICKLE LAKE    MOSUNNY   61  25  25 NE8       29.96F
DRYDEN         CLOUDY    63  37  39 NE8       29.94F
KENORA         PTSUNNY   63  34  34 E9        29.95F
$$
                *** MANITOBA***

CITY           SKY/WX    TMP DP  RH WIND       PRES   REMARKS
BRANDON        MOSUNNY   70  32  24 N5        30.00F
DAUPHIN        SUNNY     72  36  26 SE5       29.95F
ISLAND LAKE    MOSUNNY   66  23  19 E5        29.97F
PILOT MOUND    NOT AVBL
THE PAS        CLOUDY    70  37  30 MISG      29.85F
THOMPSON       CLOUDY    70  30  23 S13G23    29.84F
WINNIPEG       MOSUNNY   68  34  28 NE9G17    29.99F
LYNN LAKE      LGT RAIN  61  46  59 SW10G18   29.75F
CHURCHILL      PTSUNNY   50  39  66 S21       29.83F
GILLAM         PTSUNNY   70  34  26 S14G23    29.89F
$$
                ***SASKATCHEWAN***

CITY           SKY/WX    TMP DP  RH WIND       PRES   REMARKS
ESTEVAN        CLOUDY    68  28  22 S9        30.00F
KINDERSLEY     PTSUNNY   82  36  18 S20G31    29.73F
LLOYDMINSTER   MOSUNNY   81  43  26 S22G29    29.65F
PRINCE ALBERT  PTSUNNY   75  32  20 SW23      29.80F
REGINA         PTSUNNY   73  28  19 S10G20    29.92F
YORKTON          N/A     72  30  21 SW10      29.95F



USA.gov is the U.S. government's official web portal to all federal, state and local government web resources and services.